www.pogodaiklimat.ru

Погода и климат >> Архив погоды >> Таиланд >> Утай Тани


ПОГОДА в Утай Тани

  • Прогноз погоды в Утай Тани
  • Монитор погоды в Утай Тани

АРХИВ ПОГОДЫ в Утай Тани

Время (UTC), дата Ветер
(напр.,м/с)
 
Видим.   Явления Облачность Т
(С)
Тd
(С)
f
(%)
Тe
(С)
Тes
(С)
Комфортность P
(гПа)
Po
(гПа)
Тmin
(С)
Tmax
(С)
R
(мм)
R24
(мм)
S
(см)
03 14.05 штиль 0 10 км 8/3 600 м
[Cu Sc Ac trans Cs]
+27.2 +24.6 86 +39 +48 очень
душно
1008.8 1005.7
06 14.05 ЮВ 6 10 км 8/4 600 м
[Cu Sc Ac trans Cs]
+31.4 +25.2 70 +45 +49 опасность
перегрева
1007.0 1004.0
09 14.05 Ю 5 10 км 8/3 600 м
[Cu med, cong Ac trans Cs]
+33.2 +24.9 62 +47 +49 опасность
перегрева
1004.6 1001.6
12 14.05 штиль 0 10 км {гроза} 9/6 600 м
[Cu Sc Ac trans Cs]
+28.8 +22.6 69 +38 +38 очень
душно
1005.6 1002.6 +33.3
15 14.05 СВ 4 9000 м дымка 9/5 300 м
[Cb cap Ac trans Cs]
+27.4 +22.4 74 +36 +36 очень
душно
1008.4 1005.4
18 14.05 Ю 2 8000 м дымка 10/4 600 м
[Sc Ac trans Cs]
+25.8 +23.2 86 +35 +35 очень
душно
1008.3 1005.2
21 14.05 штиль 0 8000 м дымка 8/3 600 м
[Sc Ac trans Cs]
+25.7 +23.9 90 +35 +35 очень
душно
1007.9 1004.9
00 15.05 штиль 0 10 км 8/3 600 м
[Sc Ac trans Cs]
+25.8 +24.3 91 +36 +37 очень
душно
1009.1 1006.0 +24.5
03 15.05 ЮВ 2 10 км 8/3 600 м
[Cu hum Ac trans Cs]
+31.0 +25.8 74 +46 +53 опасность
перегрева
1009.7 1006.7
06 15.05 СЗ 4 10 км 8/6 600 м
[Cu med, cong Ac lent Cs]
+34.3 +24.8 58 +48 +52 опасность
перегрева
1007.6 1004.7
09 15.05 ЮВ 5 10 км 8/3 600 м
[Cu med, cong Ac lent Cs]
+35.1 +24.8 55 +48 +50 опасность
перегрева
1004.7 1001.8
12 15.05 СЗ 2 7000 м слаб. дождь 10/5 600 м
[Cu Sc Ac As Cs]
+28.2 +25.1 83 +41 +41 опасность
перегрева
1006.1 1003.1 +35.4 2
15 15.05 ЮЗ 4 8000 м дымка {дождь} 9/6 600 м
[Cu med, cong Ac lent Cs]
+27.6 +25.2 87 +40 +40 очень
душно
1008.4 1005.4 0.1
18 15.05 Ю 3 7000 м дымка {дождь} 8/1 600 м
[Cu med, cong Ac lent Cs]
+26.8 +25.2 91 +39 +39 очень
душно
1007.9 1004.9 2
21 15.05 ЮВ 2 8000 м дымка 6/1 600 м
[Cu hum Ac lent Cs]
+26.3 +25.4 95 +38 +38 очень
душно
1006.7 1003.7
00 16.05 штиль 0 9000 м дымка 8/1 600 м
[Cu hum Ac lent Cs]
+26.8 +25.7 94 +40 +41 очень
душно
1008.5 1005.5 +25.4 2
03 16.05 ЮВ 4 9000 м дымка 3/1 600 м
[Cu hum Cs]
+31.4 +25.6 71 +46 +55 опасность
перегрева
1009.0 1006.0
06 16.05 Ю 4 10 км 8/3 600 м
[Cu med, cong Ac lent Cs]
+34.5 +24.8 57 +48 +54 опасность
перегрева
1007.6 1004.7
09 16.05 В 4 10 км 10/8 600 м
[Cu med, cong Ac lent Cs]
+35.9 +25.3 55 +50 +51 опасность
перегрева
1004.7 1001.8
12 16.05 Ю 4 10 км 10/6 600 м
[Cu Sc Ac As Cs]
+30.8 +25.7 74 +45 +45 опасность
перегрева
1005.8 1002.8 +36.5
15 16.05 Ю 7 9000 м дымка 8/1 600 м
[Cu med, cong Ac trans Cs]
+29.5 +24.2 73 +41 +41 опасность
перегрева
1007.6 1004.6
18 16.05 Ю 6 8000 м дымка 8/1 600 м
[Cu med, cong Ac lent Cs]
+28.2 +25.4 85 +41 +41 опасность
перегрева
1007.2 1004.2
21 16.05 Ю 3 8000 м дымка 6/1 600 м
[Cu hum Ac lent Cs]
+27.2 +25.1 88 +39 +39 очень
душно
1006.2 1003.2
00 17.05 штиль 0 9000 м дымка 8/1 600 м
[Cu med, cong Ac lent Cs]
+27.1 +24.8 87 +39 +40 очень
душно
1007.1 1004.1 +25.4
03 17.05 ЮЗ 2 10 км 8/1 600 м
[Cu hum Ac lent Cs]
+33.0 +23.8 59 +45 +53 опасность
перегрева
1008.0 1005.0
06 17.05 З 4 10 км 4/3 600 м
[Cu hum Cs]
+36.3 +22.8 46 +46 +56 опасность
перегрева
1006.1 1003.2
09 17.05 ЮВ 5 10 км 4/3 600 м
[Cu hum Cs]
+37.0 +24.8 50 +50 +53 опасность
перегрева
1003.1 1000.2
12 17.05 штиль 0 10 км 3/0
[Cs]
+33.0 +26.0 67 +49 +49 опасность
перегрева
1003.8 1000.8 +38.0
15 17.05 Ю 3 9000 м дымка 3/0
[Cs]
+32.0 +25.4 68 +46 +46 опасность
перегрева
1005.7 1002.7
18 17.05 Ю 3 8000 м дымка 3/0
[Cs]
+29.5 +24.9 76 +42 +42 опасность
перегрева
1005.3 1002.3
21 17.05 ЮВ 5 7000 м дымка 3/0
[Cs]
+27.8 +24.8 84 +40 +40 очень
душно
1004.5 1001.5
00 18.05 ЮВ 4 8000 м дымка 5/0
[Cs]
+27.9 +24.9 84 +40 +41 очень
душно
1006.4 1003.4 +26.1
03 18.05 Ю 5 10 км 4/0
[Cs]
+32.7 +24.3 61 +45 +52 опасность
перегрева
1007.4 1004.5
06 18.05 ЮВ 5 10 км 4/3 600 м
[Cu hum Cs]
+37.4 +24.3 47 +49 +57 опасность
перегрева
1005.3 1002.4
09 18.05 ЮВ 6 10 км 3/3 600 м
[Cu hum Cs]
+37.9 +24.7 47 +50 +53 опасность
перегрева
1002.7 999.8
12 18.05 ЮВ 3 10 км 3/3 600 м
[Cu Sc Cs]
+34.2 +24.9 58 +47 +47 опасность
перегрева
1002.9 1000.0 +37.9
15 18.05 Ю 2 9000 м дымка 3/0
[Cs]
+31.9 +25.1 67 +45 +45 опасность
перегрева
1005.4 1002.5
18 18.05 Ю 3 8000 м дымка 3/0
[Cs]
+29.5 +25.2 78 +43 +43 опасность
перегрева
1005.3 1002.3
21 18.05 Ю 3 7000 м дымка 3/0
[Cs]
+28.2 +24.3 79 +39 +39 очень
душно
1004.9 1001.9
00 19.05 ЮВ 2 9000 м дымка 3/0
[Cs]
+28.1 +24.2 79 +39 +40 очень
душно
1006.7 1003.7 +25.7
03 19.05 З 4 10 км 3/0
[Cs]
+34.3 +23.1 52 +44 +54 опасность
перегрева
1008.1 1005.1
06 19.05 С 5 10 км 3/1 600 м
[Cu hum Cs]
+37.4 +22.4 42 +46 +56 опасность
перегрева
1006.3 1003.4
09 19.05 ЮВ 4 10 км 4/3 600 м
[Cu Sc Cs]
+38.1 +22.6 41 +47 +51 опасность
перегрева
1003.7 1000.8
12 19.05 Ю 4 10 км 4/3 600 м
[Cu Sc Cs]
+36.0 +26.3 58 +53 +53 опасность
перегрева
1003.9 1001.0 +38.6
15 19.05 Ю 3 10 км 3/0
[Cs]
+32.7 +24.6 62 +45 +45 опасность
перегрева
1006.6 1003.6
18 19.05 Ю 5 9000 м дымка 3/0
[Cs]
+30.9 +25.2 72 +45 +45 опасность
перегрева
1006.5 1003.5
21 19.05 Ю 4 8000 м дымка 3/0
[Cs]
+29.1 +25.1 79 +42 +42 опасность
перегрева
1005.7 1002.7
00 20.05 ЮВ 5 8000 м дымка 3/0
[Cs]
+29.1 +26.0 83 +44 +44 опасность
перегрева
1007.2 1004.2 +27.2
03 20.05 штиль 0 10 км 4/0
[Cs]
+34.1 +25.4 61 +49 +68 опасность
перегрева
1008.2 1005.2
06 20.05 ЮВ 3 10 км 4/3 600 м
[Cu med, cong Ac lent Cs]
+37.4 +24.1 47 +49 +61 опасность
перегрева
1007.0 1004.1
09 20.05 ЮВ 7 10 км 6/3 600 м
[Cu med, cong Ac lent Cs]
+38.5 +24.3 45 +50 +52 опасность
перегрева
1003.7 1000.8
12 20.05 Ю 6 10 км 8/3 600 м
[Cu med, cong Ac lent Cs]
+35.1 +25.1 56 +49 +49 опасность
перегрева
1003.8 1000.9 +38.8
15 20.05 Ю 3 10 км 4/1 600 м
[Cu hum Ac lent Cs]
+32.8 +24.6 62 +46 +46 опасность
перегрева
1006.6 1003.6
18 20.05 Ю 6 9000 м дымка 6/1 600 м
[Cu hum Ac trans Cs]
+30.1 +24.2 71 +42 +42 опасность
перегрева
1006.6 1003.6
21 20.05 Ю 4 9000 м дымка 4/1 600 м
[Cu hum Ac lent Cs]
+28.4 +24.5 79 +40 +40 очень
душно
1006.3 1003.3

 

Местоположение метеостанции Утай Тани (Таиланд): широта 15.38 долгота 100.04 высота над уровнем моря 26 м.

В архиве по умолчанию представлена погода в Утай Тани за последнюю неделю. Архивные данные за месяц целиком и за предыдущие месяцы, начиная с января 2011 года, Вы можете получить, выбрав интересующий диапазон дат из раскрывающегося списка и нажав кнопку "Ввод!".


*Определитесь, кто Вы:
робот инопланетянин человек

Внимание! Время в таблицах - всемирное. Для получения местного времени необходимо прибавить поправку, которая равна 7 ч.

Смотрите также архив погоды в соседних городах и на ближайших метеорологических станциях:

Погода в Чайнат Агромете (Таиланд) (30 км)
Погода в Накхон Саван (Таиланд) (48 км)
Погода в Такфа Агромете (Таиланд) (49 км)
Погода в Лопбури (Таиланд) (89 км)
Погода в Лаем-Чабанге (Таиланд) (96 км)
Погода в Суфанбури (Таиланд) (102 км)
Погода в Вичан Бури (Таиланд) (118 км)
Погода в Пичит Агромете (Таиланд) (120 км)
Погода в Аюттхая (Таиланд) (120 км)
Погода в У-Тхонг Агромете (Таиланд) (122 км)

Пояснения к столбцам:

Ветер - указаны скорость ветра в м/с - средняя за 10 мин, порывы в срок и между сроками (в фигурных скобках) и направление, откуда дует ветер: С - северный, СВ - северо-восточный, В - восточный, ЮВ - юго-восточный, Ю - южный, ЮЗ - юго-западный, З - западный, СЗ - северо-западный.
Видимость - горизонтальная дальность видимости в метрах или километрах. При видимости от 1 до 10 км при отсутствии осадков обычно наблюдается дымка, при ухудшении видимости до 1 км и менее - туман. В сухую погоду видимость может ухудшаться дымом, пылью или мглою.
Явления - указаны атмосферные явления, наблюдавшиеся в срок или в последний час перед сроком; фигурными скобками обозначены явления, наблюдавшиеся между сроками (за 1-3 часа до срока); квадратными скобками обозначены град или гололедные отложения с указанием их диаметра в мм.
Облачность - указаны через наклонную черту общая и нижняя облачность в баллах и высота нижней границы облаков в метрах; квадратными скобками обозначены формы облаков: Ci - перистые, Cs - перисто-слоистые, Cc - перисто-кучевые, Ac - высококучевые, As - высокослоистые, Sc - слоисто-кучевые, Ns - слоисто-дождевые, Cu - кучевые, Cb - кучево-дождевые. Подробнее классификацию облаков см. в Атласе облаков (PDF).
T - Температура воздуха - температура, измеренная на высоте 2 м над землей.
Td - Температура точки росы - температура, при понижении до которой содержащийся в воздухе водяной пар достигнет насыщения.
f - Относительная влажность воздуха - влажноcть воздуха, измеренная на высоте 2 м над землей.
Te - Эффективная температура - температура, которую ощущает одетый по сезону человек в тени. Характеристика душности погоды. При расчете учитывается влияние влажности воздуха и скорости ветра на теплоощущения человека.
Tes - Эффективная температура на солнце - температура, которую ощущает человек, с поправкой на солнечный нагрев. Характеристика знойности погоды. Зависит от высоты солнца над горизонтом, облачности и скорости ветра. Ночью, в пасмурную погоду, а также при ветре 12 м/с и более поправка равна нулю.
P - Атмосферное давление - приведенное к уровню моря атмосферное давление.
Po - Атмосферное давление - измеренное на уровне метеостанции атмосферное давление.
Tmin - Минимальная температура - минимум температуры воздуха на высоте 2 м над землей.
Tmax - Максимальная температура - максимум температуры воздуха на высоте 2 м над землей.
R - Количество осадков - Количество выпавших осадков за период времени, мм. При наведении курсора мыши на число - период времени, за который выпало указанное количество осадков.
R24 - Количество осадков - Количество выпавших осадков за 24 часа, мм.
S - Снежный покров - Высота снежного покрова, см. При наведении курсора мыши на число - состояние снежного покрова и степень покрытия местности в баллах.